COSMOS 252 DEB, 18556

Orbit data source: Space-Track

COSMOS 252 DEB, 18556 is space debris in LEO originally from a launch on Fri, 01 Nov 1968 UTC launched from the Tyuratam Missile And Space Complex (TTMTR). Debris objects in space refer to the collection of defunct objects orbiting the Earth. Examples of debris include non-operational satellites, rocket bodies, and fragments generated from explosions, collisions, or faulty payload assembly.

Loading next visibility...
Identifier
18556, 1968-097EP
Orbit
LEO
Country
Flag of CISCIS
Related business
Manufacturer
Unknown
Mission
Spacecraft
Bus & Motor
Unknown
Mass
Unknown
Launch date (UTC)
1968-11-01 (57 years ago)
Launch vehicle
Unknown
Launch site
Tyuratam Missile And Space Complex (TTMTR)
Object type
Payload
Rocket body
Debris
Shape & HBR
Unknown shape, 0.1 m
Radar Cross Section
Small (<0.1 m²)

Expand to show TLE details & history
Last TLE update: 1 day ago

TLE from 1 day ago
0 COSMOS 252 DEB
1 18556U 68097EP  25287.41924143  .00004526  00000-0  23034-2 0  9998
2 18556  62.1959 292.6613 0426049 193.9248 164.9734 13.78741966463884
Epoch: 2025-10-14T10:03Z
TLE epoch observation values (Epoch: 2025-10-14T10:03:42.459Z)
Latitude
-0.00004°
Longitude
118.52642°
Altitude
1,273.201 km
Speed
7.069 km/s
True Right ascension
19h 30m 38s
True Declination
0° 00' 00"
Sunlit
Object was in daylight at epoch
Visualization orbit readout
Latitude
Unknown
Longitude
Unknown
Altitude
Unknown
Speed
Unknown
Apparent Right ascension
Unknown
Apparent Declination
Unknown
Sunlit
N/A
Visualization observer readout
Local Sidereal Time
06:57:56
Azimuth
Unknown
Elevation
Unknown
Doppler factor
Unknown
Orbital elements
Apogee altitude
1,280.265 km
Perigee altitude
654.361 km
Semi-major axis
7,345.45 km
Eccentricity
0.0426
Inclination
62.1959°
RAAN
292.6613°
Arg. of periapsis
193.9248°
True anomaly
166.17706°
Mean anomaly
164.9734°
Eccentric anomaly
165.58125°
Mean motion
3.44759 °/min
Orbital period
104.42 mins
BSTAR
0.0023034
Loading maneuver chart data...
Computing Atmospheric mass density...

Documentation

Showing up to 5 results
|